SECAS ESGG-ESMT

Flight info

Callsign SECAS
Flight time 0h 40m
Altitude 5000
Route LINDOME DCT GIXUN DCT 572101N0115932E DCT 572005N0120955E DCT 571357N0121220E DCT 565546N0122743E
Aircraft C172/L-V/N

Departure

Time 2026-04-16 14:16
Airport Göteborg Landvetter Airport (ESGG)

Arrival

Time 2026-04-16 14:56
Airport Halmstad Airport (ESMT)
Time Latitude Longitude Altitude Speed Heading
2026-04-16 14:00 57.67032 12.29290 511 ft 0 kts 251°
2026-04-16 14:11 57.67030 12.29286 511 ft 1 kts 213°
2026-04-16 14:12 57.67009 12.29270 511 ft 5 kts 211°
2026-04-16 14:12 57.67008 12.29212 511 ft 6 kts 310°
2026-04-16 14:12 57.67079 12.29219 511 ft 13 kts 25°
2026-04-16 14:12 57.67180 12.29310 511 ft 18 kts 25°
2026-04-16 14:13 57.67284 12.29406 511 ft 16 kts 27°
2026-04-16 14:13 57.67384 12.29490 511 ft 13 kts
2026-04-16 14:13 57.67437 12.29377 510 ft 12 kts 296°
2026-04-16 14:13 57.67462 12.29248 510 ft 10 kts 269°
2026-04-16 14:14 57.67451 12.29115 509 ft 11 kts 252°
2026-04-16 14:14 57.67399 12.28995 510 ft 13 kts 208°
2026-04-16 14:14 57.67209 12.28821 509 ft 54 kts 206°
2026-04-16 14:14 57.66771 12.28417 577 ft 78 kts 205°
2026-04-16 14:15 57.66262 12.27975 738 ft 82 kts 204°
2026-04-16 14:15 57.65746 12.27519 914 ft 85 kts 206°
2026-04-16 14:15 57.65202 12.26990 1048 ft 90 kts 209°
2026-04-16 14:15 57.64642 12.26381 1101 ft 98 kts 210°
2026-04-16 14:16 57.64163 12.25491 1135 ft 101 kts 238°
2026-04-16 14:16 57.63870 12.24294 1170 ft 103 kts 247°
2026-04-16 14:16 57.63626 12.23055 1205 ft 103 kts 250°
2026-04-16 14:16 57.63393 12.21792 1238 ft 104 kts 246°
2026-04-16 14:17 57.63128 12.20529 1286 ft 103 kts 246°
2026-04-16 14:17 57.62860 12.19284 1323 ft 103 kts 247°
2026-04-16 14:17 57.62595 12.18023 1319 ft 106 kts 247°
2026-04-16 14:17 57.62320 12.16768 1364 ft 104 kts 245°
2026-04-16 14:18 57.62043 12.15543 1400 ft 104 kts 244°
2026-04-16 14:18 57.61737 12.14297 1418 ft 106 kts 243°
2026-04-16 14:18 57.61450 12.13015 1359 ft 109 kts 244°
2026-04-16 14:18 57.61155 12.11711 1328 ft 110 kts 244°
2026-04-16 14:19 57.60861 12.10396 1303 ft 110 kts 243°
2026-04-16 14:19 57.60565 12.09068 1274 ft 111 kts 243°
2026-04-16 14:19 57.60245 12.07740 1218 ft 112 kts 240°
2026-04-16 14:19 57.59911 12.06473 1275 ft 104 kts 240°
2026-04-16 14:20 57.59595 12.05276 1303 ft 102 kts 238°
2026-04-16 14:20 57.59260 12.04086 1260 ft 106 kts 237°
2026-04-16 14:20 57.58832 12.02996 1287 ft 104 kts 227°
2026-04-16 14:20 57.58371 12.01951 1290 ft 104 kts 226°
2026-04-16 14:21 57.57906 12.00935 1339 ft 102 kts 224°
2026-04-16 14:21 57.57434 11.99945 1375 ft 103 kts 225°
2026-04-16 14:21 57.56964 11.98991 1664 ft 96 kts 220°
2026-04-16 14:21 57.56480 11.98137 1918 ft 94 kts 218°
2026-04-16 14:22 57.56002 11.97338 2178 ft 92 kts 216°
2026-04-16 14:22 57.55498 11.96590 2407 ft 94 kts 213°
2026-04-16 14:22 57.54978 11.95854 2629 ft 94 kts 212°
2026-04-16 14:22 57.54460 11.95156 2865 ft 91 kts 212°
2026-04-16 14:23 57.53946 11.94462 3053 ft 92 kts 212°
2026-04-16 14:23 57.53404 11.93794 3248 ft 94 kts 210°
2026-04-16 14:23 57.52839 11.93138 3415 ft 97 kts 210°
2026-04-16 14:23 57.52266 11.92494 3592 ft 96 kts 208°
2026-04-16 14:24 57.51664 11.91955 3783 ft 96 kts 204°
2026-04-16 14:24 57.51055 11.91477 3972 ft 94 kts 203°
2026-04-16 14:24 57.50444 11.91057 4168 ft 93 kts 201°
2026-04-16 14:24 57.49824 11.90707 4342 ft 94 kts 200°
2026-04-16 14:25 57.49180 11.90350 4464 ft 99 kts 201°
2026-04-16 14:25 57.48508 11.89996 4606 ft 102 kts 196°
2026-04-16 14:25 57.47804 11.89729 4726 ft 106 kts 193°
2026-04-16 14:25 57.47064 11.89496 4840 ft 108 kts 192°
2026-04-16 14:26 57.46299 11.89316 4895 ft 115 kts 190°
2026-04-16 14:26 57.45503 11.89149 4986 ft 115 kts 189°
2026-04-16 14:26 57.44955 11.89070 4937 ft 123 kts 186°
2026-04-16 14:26 57.44090 11.89012 4919 ft 125 kts 185°
2026-04-16 14:27 57.43226 11.88946 4950 ft 123 kts 185°
2026-04-16 14:27 57.42367 11.89128 4967 ft 125 kts 167°
2026-04-16 14:27 57.41557 11.89658 4932 ft 120 kts 162°
2026-04-16 14:27 57.40790 11.90254 4868 ft 117 kts 159°
2026-04-16 14:28 57.40057 11.90865 4814 ft 116 kts 160°
2026-04-16 14:28 57.39311 11.91510 4673 ft 121 kts 157°
2026-04-16 14:28 57.38584 11.92181 4672 ft 114 kts 158°
2026-04-16 14:28 57.37878 11.92832 4600 ft 115 kts 159°
2026-04-16 14:29 57.37177 11.93509 4599 ft 112 kts 150°
2026-04-16 14:29 57.36539 11.94343 4577 ft 112 kts 144°
2026-04-16 14:29 57.35932 11.95275 4475 ft 117 kts 144°
2026-04-16 14:29 57.35357 11.96329 4434 ft 119 kts 132°
2026-04-16 14:30 57.34960 11.97668 4408 ft 118 kts 110°
2026-04-16 14:30 57.34766 11.99139 4536 ft 118 kts 103°
2026-04-16 14:30 57.34610 12.00621 4715 ft 116 kts 100°
2026-04-16 14:30 57.34511 12.02091 4846 ft 117 kts 94°
2026-04-16 14:31 57.34443 12.03679 4810 ft 128 kts 94°
2026-04-16 14:31 57.34370 12.05355 4811 ft 131 kts 95°
2026-04-16 14:31 57.34288 12.07035 4824 ft 132 kts 93°
2026-04-16 14:31 57.34259 12.08725 4894 ft 130 kts 90°
2026-04-16 14:32 57.34242 12.10356 4883 ft 124 kts 91°
2026-04-16 14:32 57.34051 12.11881 4797 ft 124 kts 123°
2026-04-16 14:32 57.33540 12.13201 4679 ft 125 kts 128°
2026-04-16 14:32 57.33029 12.14444 4681 ft 119 kts 130°
2026-04-16 14:33 57.32451 12.15464 4698 ft 112 kts 152°
2026-04-16 14:33 57.31761 12.16051 4709 ft 110 kts 152°
2026-04-16 14:33 57.31044 12.16793 4509 ft 123 kts 157°
2026-04-16 14:33 57.30271 12.17424 4441 ft 121 kts 160°
2026-04-16 14:34 57.29497 12.18009 4406 ft 117 kts 162°
2026-04-16 14:34 57.28783 12.18553 4485 ft 108 kts 161°
2026-04-16 14:34 57.28100 12.19086 4527 ft 105 kts 161°
2026-04-16 14:34 57.27417 12.19607 4498 ft 108 kts 162°
2026-04-16 14:35 57.26734 12.20087 4574 ft 103 kts 162°
2026-04-16 14:35 57.26062 12.20527 4610 ft 107 kts 165°
2026-04-16 14:35 57.25328 12.20993 4664 ft 116 kts 163°
2026-04-16 14:35 57.24561 12.21501 4762 ft 119 kts 163°
2026-04-16 14:36 57.23800 12.22080 4888 ft 118 kts 159°
2026-04-16 14:36 57.23036 12.22721 4931 ft 124 kts 159°
2026-04-16 14:36 57.22248 12.23399 4936 ft 129 kts 159°
2026-04-16 14:36 57.21438 12.24074 4955 ft 124 kts 159°
2026-04-16 14:37 57.20645 12.24672 4855 ft 123 kts 164°
2026-04-16 14:37 57.19836 12.25175 4786 ft 121 kts 166°
2026-04-16 14:37 57.19033 12.25606 4728 ft 120 kts 168°
2026-04-16 14:37 57.18238 12.26046 4679 ft 118 kts 166°
2026-04-16 14:38 57.17463 12.26505 4660 ft 115 kts 166°
2026-04-16 14:38 57.16706 12.26959 4624 ft 115 kts 166°
2026-04-16 14:38 57.15949 12.27382 4573 ft 115 kts 167°
2026-04-16 14:38 57.15186 12.27774 4562 ft 113 kts 168°
2026-04-16 14:39 57.14438 12.28149 4565 ft 111 kts 168°
2026-04-16 14:39 57.13700 12.28439 4583 ft 108 kts 173°
2026-04-16 14:39 57.12948 12.28773 4516 ft 112 kts 166°
2026-04-16 14:39 57.12187 12.29251 4464 ft 113 kts 162°
2026-04-16 14:40 57.11484 12.29829 4452 ft 114 kts 158°
2026-04-16 14:40 57.10769 12.30494 4373 ft 118 kts 155°
2026-04-16 14:40 57.10047 12.31206 4312 ft 118 kts 155°
2026-04-16 14:40 57.09309 12.31915 4203 ft 120 kts 155°
2026-04-16 14:41 57.08580 12.32622 4283 ft 119 kts 153°
2026-04-16 14:41 57.07889 12.33364 4475 ft 112 kts 151°
2026-04-16 14:41 57.07220 12.34146 4543 ft 118 kts 150°
2026-04-16 14:41 57.06512 12.34992 4563 ft 124 kts 150°
2026-04-16 14:42 57.05814 12.35805 4580 ft 115 kts 150°
2026-04-16 14:42 57.05162 12.36689 4514 ft 117 kts 144°
2026-04-16 14:42 57.04513 12.37621 4444 ft 118 kts 147°
2026-04-16 14:42 57.03848 12.38513 4368 ft 119 kts 147°
2026-04-16 14:43 57.03180 12.39388 4321 ft 117 kts 151°
2026-04-16 14:43 57.02502 12.40153 4293 ft 114 kts 152°
2026-04-16 14:43 57.01841 12.40887 4327 ft 109 kts 153°
2026-04-16 14:43 57.01217 12.41600 4402 ft 102 kts 151°
2026-04-16 14:44 57.00614 12.42304 4412 ft 104 kts 150°
2026-04-16 14:44 56.99996 12.43046 4394 ft 108 kts 149°
2026-04-16 14:44 56.99392 12.43861 4391 ft 107 kts 148°
2026-04-16 14:44 56.98790 12.44615 4449 ft 102 kts 148°
2026-04-16 14:45 56.98189 12.45370 4558 ft 107 kts 148°
2026-04-16 14:45 56.97574 12.46149 4697 ft 110 kts 148°
2026-04-16 14:45 56.96923 12.46951 4749 ft 113 kts 148°
2026-04-16 14:45 56.96271 12.47778 4731 ft 114 kts 148°
2026-04-16 14:46 56.95604 12.48578 4715 ft 114 kts 152°
2026-04-16 14:46 56.94928 12.49363 4664 ft 117 kts 149°
2026-04-16 14:46 56.94253 12.50183 4635 ft 116 kts 149°
2026-04-16 14:46 56.93583 12.51039 4585 ft 117 kts 146°
2026-04-16 14:47 56.92928 12.51908 4541 ft 118 kts 147°
2026-04-16 14:47 56.92266 12.52760 4506 ft 118 kts 147°
2026-04-16 14:47 56.91611 12.53707 4434 ft 119 kts 137°
2026-04-16 14:47 56.91062 12.54809 4309 ft 114 kts 130°
2026-04-16 14:48 56.90629 12.55993 4169 ft 112 kts 122°
2026-04-16 14:48 56.90220 12.57228 3955 ft 114 kts 121°
2026-04-16 14:48 56.89817 12.58473 3798 ft 111 kts 121°
2026-04-16 14:48 56.89415 12.59692 3656 ft 115 kts 121°
2026-04-16 14:49 56.89012 12.60983 3557 ft 118 kts 120°
2026-04-16 14:49 56.88600 12.62272 3412 ft 118 kts 122°
2026-04-16 14:49 56.88178 12.63555 3254 ft 117 kts 121°
2026-04-16 14:49 56.87771 12.64838 3068 ft 117 kts 120°
2026-04-16 14:50 56.87417 12.66160 2950 ft 113 kts 114°
2026-04-16 14:50 56.87112 12.67479 2793 ft 114 kts 114°
2026-04-16 14:50 56.86804 12.68800 2617 ft 114 kts 116°
2026-04-16 14:50 56.86488 12.70059 2471 ft 105 kts 116°
2026-04-16 14:51 56.86174 12.71237 2356 ft 101 kts 121°
2026-04-16 14:51 56.85829 12.72374 2167 ft 104 kts 121°
2026-04-16 14:51 56.85487 12.73538 1998 ft 104 kts 120°
2026-04-16 14:51 56.85170 12.74689 1869 ft 101 kts 117°
2026-04-16 14:53 56.83872 12.83316 1644 ft 97 kts 109°
2026-04-16 14:53 56.83506 12.84303 1698 ft 93 kts 147°
2026-04-16 14:54 56.82910 12.84786 1641 ft 100 kts 166°
2026-04-16 14:54 56.82205 12.84763 1610 ft 104 kts 187°
2026-04-16 14:54 56.81498 12.84563 1509 ft 103 kts 189°
2026-04-16 14:54 56.80774 12.84341 1392 ft 106 kts 189°
2026-04-16 14:55 56.80073 12.84174 1309 ft 100 kts 187°
2026-04-16 14:55 56.79389 12.84005 1214 ft 94 kts 187°
2026-04-16 14:55 56.78803 12.83823 1145 ft 78 kts 191°
2026-04-16 14:55 56.78322 12.83612 994 ft 66 kts 196°
2026-04-16 14:56 56.77873 12.83401 831 ft 65 kts 200°
2026-04-16 14:56 56.77460 12.83221 715 ft 60 kts 196°
2026-04-16 14:56 56.77073 12.83161 555 ft 57 kts 195°
2026-04-16 14:56 56.76722 12.83135 433 ft 47 kts 193°